Location: ?????????
(38.5999°N, 22.7695°E)
Time: 11:16:52
(UTC+00:00)

FENGYUN 3A - Pass Details

Date: 23 May 2024
Orbit: 821 x 835 km, 98.6° (Epoch: 23 June)

Event Time Altitude Azimuth Distance (km) Brightness Sun altitude
Rises 00:36:15 0° 16° (NNE) 3,365 8.1 -23.3°
Reaches altitude 10° 00:38:38 10° 19° (NNE) 2,427 7.1 -23.1°
Maximum altitude 00:43:58 65° 102° (ESE) 900 3.8 -22.5°
Enters shadow 00:45:58 38° 169° (S) 1,231 4.2 -22.3°
